TimeEDT,TemperatureF,Dew PointF,Humidity,Sea Level PressureIn,VisibilityMPH,Wind Direction,Wind SpeedMPH,Gust SpeedMPH,PrecipitationIn,Events,Conditions,WindDirDegrees,DateUTC
12:53 AM,61.0,59.0,93,29.88,2.5,NNW,13.8,19.6,0.00,Rain,Light Rain,340,2013-07-27 04:53:00
1:00 AM,60.8,59.0,94,29.88,8.0,North,13.8,-,0.00,,Overcast,350,2013-07-27 05:00:00
1:18 AM,60.8,59.0,94,29.87,8.0,North,11.5,-,0.00,,Overcast,350,2013-07-27 05:18:00
1:53 AM,60.1,59.0,96,29.87,8.0,North,13.8,-,0.00,,Overcast,350,2013-07-27 05:53:00
2:53 AM,60.1,59.0,96,29.88,8.0,NW,9.2,-,N/A,,Overcast,310,2013-07-27 06:53:00
3:53 AM,61.0,60.1,97,29.89,8.0,WNW,6.9,-,0.01,,Overcast,290,2013-07-27 07:53:00
4:29 AM,60.8,59.0,94,29.90,4.0,WNW,5.8,-,0.01,Rain,Light Rain,290,2013-07-27 08:29:00
4:53 AM,60.1,60.1,100,29.90,4.0,WNW,3.5,-,0.02,Rain,Light Rain,300,2013-07-27 08:53:00
5:21 AM,60.8,60.8,100,29.91,10.0,Calm,Calm,-,0.00,,Overcast,0,2013-07-27 09:21:00
5:53 AM,61.0,60.1,97,29.92,10.0,WNW,3.5,-,0.00,,Overcast,290,2013-07-27 09:53:00
6:53 AM,62.1,60.1,93,29.93,10.0,West,4.6,-,N/A,,Mostly Cloudy,280,2013-07-27 10:53:00
7:53 AM,64.0,61.0,90,29.95,10.0,West,8.1,-,N/A,,Overcast,270,2013-07-27 11:53:00
8:53 AM,66.0,61.0,84,29.96,10.0,NW,9.2,-,N/A,,Mostly Cloudy,310,2013-07-27 12:53:00
9:53 AM,68.0,61.0,78,29.97,10.0,West,9.2,-,N/A,,Overcast,280,2013-07-27 13:53:00
10:21 AM,68.0,60.8,78,29.99,10.0,West,9.2,17.3,N/A,,Overcast,280,2013-07-27 14:21:00
10:53 AM,71.1,61.0,70,29.98,10.0,Variable,6.9,-,N/A,,Overcast,0,2013-07-27 14:53:00
11:53 AM,75.0,62.1,64,29.98,10.0,NNW,15.0,-,N/A,,Mostly Cloudy,330,2013-07-27 15:53:00
12:53 PM,75.9,62.1,62,29.98,10.0,WNW,8.1,-,N/A,,Mostly Cloudy,290,2013-07-27 16:53:00
1:53 PM,79.0,63.0,58,29.97,10.0,WNW,9.2,-,N/A,,Scattered Clouds,290,2013-07-27 17:53:00
2:53 PM,81.0,62.1,52,29.98,10.0,NW,5.8,-,N/A,,Scattered Clouds,320,2013-07-27 18:53:00
3:53 PM,81.0,62.1,52,29.98,10.0,WNW,8.1,-,N/A,,Scattered Clouds,290,2013-07-27 19:53:00
4:53 PM,81.0,60.1,49,29.98,10.0,WNW,5.8,-,N/A,,Scattered Clouds,290,2013-07-27 20:53:00
5:53 PM,81.0,61.0,50,29.98,10.0,NW,4.6,-,N/A,,Mostly Cloudy,310,2013-07-27 21:53:00
6:53 PM,75.9,64.0,67,29.99,10.0,West,3.5,-,N/A,,Mostly Cloudy,280,2013-07-27 22:53:00
7:53 PM,73.0,64.9,76,29.99,10.0,South,5.8,-,N/A,,Mostly Cloudy,170,2013-07-27 23:53:00
8:53 PM,70.0,63.0,78,30.01,10.0,South,3.5,-,N/A,,Mostly Cloudy,180,2013-07-28 00:53:00
9:53 PM,69.1,63.0,81,30.04,10.0,South,3.5,-,N/A,,Overcast,180,2013-07-28 01:53:00
10:53 PM,66.9,62.1,84,30.04,10.0,SSW,3.5,-,N/A,,Mostly Cloudy,210,2013-07-28 02:53:00
11:53 PM,63.0,61.0,93,30.04,10.0,Calm,Calm,-,N/A,,Scattered Clouds,0,2013-07-28 03:53:00